Time,TemperatureF,DewpointF,PressureIn,WindDirection,WindDirectionDegrees,WindSpeedMPH,WindSpeedGustMPH,Humidity,HourlyPrecipIn,Conditions,Clouds,dailyrainin,SoftwareType,DateUTC
2013-01-12 00:03:00,48.0,47.0,30.12,North,0,0.0,0.0,98,0.00,,,0.21,,2013-01-12 05:03:00,
2013-01-12 00:12:00,48.0,47.0,30.12,North,0,0.0,0.0,98,0.00,,,0.21,,2013-01-12 05:12:00,
2013-01-12 00:22:00,48.0,47.0,30.13,North,0,0.0,0.0,98,0.00,,,0.21,,2013-01-12 05:22:00,
2013-01-12 00:32:00,48.0,47.0,30.13,North,0,0.0,0.0,98,0.00,,,0.21,,2013-01-12 05:32:00,
2013-01-12 00:42:00,48.0,47.0,30.13,North,0,0.0,0.0,98,0.00,,,0.21,,2013-01-12 05:42:00,
2013-01-12 00:53:00,48.0,47.0,30.12,North,0,0.0,0.0,98,0.00,,,0.21,,2013-01-12 05:53:00,
2013-01-12 01:02:00,48.0,47.0,30.12,North,0,0.0,0.0,98,0.00,,,0.21,,2013-01-12 06:02:00,
2013-01-12 01:12:00,48.0,47.0,30.12,North,0,0.0,0.0,98,0.00,,,0.21,,2013-01-12 06:12:00,
2013-01-12 01:22:00,49.0,48.0,30.12,North,0,0.0,0.0,98,0.00,,,0.21,,2013-01-12 06:22:00,
2013-01-12 01:33:00,49.0,48.0,30.11,North,0,0.0,0.0,98,0.00,,,0.21,,2013-01-12 06:33:00,
2013-01-12 01:43:00,49.0,48.0,30.11,North,0,0.0,0.0,98,0.00,,,0.21,,2013-01-12 06:43:00,
2013-01-12 01:53:00,49.0,48.0,30.12,North,0,0.0,0.0,98,0.00,,,0.21,,2013-01-12 06:53:00,
2013-01-12 02:02:00,49.0,48.0,30.12,North,0,0.0,0.0,98,0.00,,,0.21,,2013-01-12 07:02:00,
2013-01-12 02:12:00,49.0,48.0,30.12,North,0,0.0,0.0,98,0.00,,,0.21,,2013-01-12 07:12:00,
2013-01-12 02:22:00,49.0,48.0,30.12,North,0,0.0,0.0,98,0.00,,,0.21,,2013-01-12 07:22:00,
2013-01-12 02:32:00,49.0,48.0,30.11,North,0,0.0,0.0,98,0.00,,,0.21,,2013-01-12 07:32:00,
2013-01-12 02:42:00,49.0,48.0,30.11,North,0,0.0,0.0,98,0.00,,,0.21,,2013-01-12 07:42:00,
2013-01-12 02:53:00,49.0,48.0,30.11,North,0,0.0,0.0,98,0.00,,,0.21,,2013-01-12 07:53:00,
2013-01-12 03:02:00,49.0,48.0,30.12,North,0,0.0,0.0,98,0.00,,,0.21,,2013-01-12 08:02:00,
2013-01-12 03:12:00,49.0,48.0,30.12,North,0,0.0,0.0,98,0.00,,,0.21,,2013-01-12 08:12:00,
2013-01-12 03:22:00,49.0,48.0,30.11,North,0,0.0,0.0,98,0.00,,,0.21,,2013-01-12 08:22:00,
2013-01-12 03:32:00,49.0,48.0,30.11,North,0,0.0,0.0,98,0.00,,,0.21,,2013-01-12 08:32:00,
2013-01-12 03:42:00,49.0,48.0,30.11,North,0,0.0,0.0,98,0.00,,,0.21,,2013-01-12 08:42:00,
2013-01-12 03:52:00,49.0,48.0,30.11,North,0,0.0,0.0,98,0.00,,,0.21,,2013-01-12 08:52:00,
2013-01-12 04:02:00,49.0,48.0,30.11,North,0,0.0,0.0,98,0.00,,,0.21,,2013-01-12 09:02:00,
2013-01-12 04:12:00,49.0,48.0,30.11,North,0,0.0,0.0,98,0.00,,,0.21,,2013-01-12 09:12:00,
2013-01-12 04:22:00,49.0,48.0,30.11,North,0,0.0,0.0,98,0.00,,,0.21,,2013-01-12 09:22:00,
2013-01-12 04:32:00,49.0,48.0,30.11,North,0,0.0,0.0,98,0.00,,,0.21,,2013-01-12 09:32:00,
2013-01-12 04:42:00,49.0,48.0,30.11,North,0,0.0,0.0,98,0.00,,,0.21,,2013-01-12 09:42:00,
2013-01-12 04:53:00,49.0,48.0,30.10,North,0,0.0,0.0,98,0.00,,,0.21,,2013-01-12 09:53:00,
2013-01-12 05:02:00,50.0,49.0,30.09,North,0,0.0,0.0,98,0.00,,,0.21,,2013-01-12 10:02:00,
2013-01-12 05:12:00,50.0,49.0,30.09,North,0,0.0,0.0,98,0.00,,,0.21,,2013-01-12 10:12:00,
2013-01-12 05:22:00,50.0,49.0,30.09,North,0,0.0,0.0,98,0.00,,,0.21,,2013-01-12 10:22:00,
2013-01-12 05:32:00,50.0,49.0,30.09,North,0,0.0,0.0,98,0.00,,,0.21,,2013-01-12 10:32:00,
2013-01-12 05:42:00,50.0,49.0,30.09,North,0,0.0,0.0,98,0.00,,,0.21,,2013-01-12 10:42:00,
2013-01-12 05:52:00,50.0,49.0,30.09,North,0,0.0,0.0,98,0.00,,,0.21,,2013-01-12 10:52:00,
2013-01-12 06:02:00,50.0,49.0,30.09,North,0,0.0,0.0,98,0.00,,,0.21,,2013-01-12 11:02:00,
2013-01-12 06:12:00,50.0,49.0,30.09,North,0,0.0,0.0,98,0.00,,,0.21,,2013-01-12 11:12:00,
2013-01-12 06:22:00,50.0,49.0,30.09,North,0,0.0,0.0,98,0.00,,,0.21,,2013-01-12 11:22:00,
2013-01-12 06:33:00,50.0,49.0,30.10,North,0,0.0,0.0,98,0.00,,,0.21,,2013-01-12 11:33:00,
2013-01-12 06:42:00,50.0,49.0,30.10,North,0,0.0,0.0,98,0.00,,,0.21,,2013-01-12 11:42:00,
2013-01-12 06:52:00,50.0,49.0,30.10,North,0,0.0,0.0,98,0.00,,,0.21,,2013-01-12 11:52:00,
2013-01-12 07:03:00,50.0,49.0,30.10,North,0,0.0,0.0,98,0.00,,,0.20,,2013-01-12 12:03:00,
2013-01-12 07:12:00,50.0,49.0,30.10,North,0,0.0,0.0,98,0.00,,,0.20,,2013-01-12 12:12:00,
2013-01-12 07:22:00,50.0,49.0,30.11,North,0,0.0,0.0,98,0.00,,,0.19,,2013-01-12 12:22:00,
2013-01-12 07:32:00,50.0,49.0,30.11,North,0,0.0,0.0,98,0.00,,,0.19,,2013-01-12 12:32:00,
2013-01-12 07:42:00,50.0,49.0,30.11,North,0,0.0,0.0,98,0.00,,,0.19,,2013-01-12 12:42:00,
2013-01-12 07:52:00,50.0,49.0,30.11,North,0,0.0,0.0,98,0.00,,,0.19,,2013-01-12 12:52:00,
2013-01-12 08:02:00,51.0,50.0,30.12,North,0,0.0,0.0,98,0.00,,,0.16,,2013-01-12 13:02:00,
2013-01-12 08:12:00,51.0,50.0,30.12,North,0,0.0,0.0,98,0.00,,,0.16,,2013-01-12 13:12:00,
2013-01-12 08:23:00,51.0,50.0,30.12,North,0,0.0,0.0,98,0.00,,,0.16,,2013-01-12 13:23:00,
2013-01-12 08:33:00,51.0,50.0,30.12,North,0,0.0,0.0,98,0.00,,,0.16,,2013-01-12 13:33:00,
2013-01-12 08:42:00,51.0,50.0,30.12,North,0,0.0,0.0,98,0.00,,,0.16,,2013-01-12 13:42:00,
2013-01-12 09:33:00,53.0,53.0,30.13,North,0,0.0,0.0,99,0.00,,,0.05,,2013-01-12 14:33:00,
2013-01-12 09:43:00,53.0,53.0,30.13,North,0,0.0,0.0,99,0.00,,,0.05,,2013-01-12 14:43:00,
2013-01-12 09:53:00,54.0,54.0,30.13,North,0,0.0,2.0,99,0.00,,,0.04,,2013-01-12 14:53:00,
2013-01-12 10:03:00,55.0,54.0,30.13,North,0,0.0,2.0,98,0.00,,,0.04,,2013-01-12 15:03:00,
2013-01-12 10:12:00,55.0,54.0,30.13,North,0,0.0,2.0,98,0.00,,,0.04,,2013-01-12 15:12:00,
2013-01-12 10:22:00,55.0,54.0,30.13,North,0,0.0,2.0,98,0.00,,,0.04,,2013-01-12 15:22:00,
2013-01-12 10:33:00,56.0,56.0,30.14,North,0,0.0,4.0,99,0.00,,,0.03,,2013-01-12 15:33:00,
2013-01-12 10:43:00,56.0,56.0,30.14,North,0,0.0,4.0,99,0.00,,,0.03,,2013-01-12 15:43:00,
2013-01-12 10:53:00,56.0,56.0,30.14,North,0,0.0,4.0,99,0.00,,,0.03,,2013-01-12 15:53:00,
2013-01-12 11:03:00,56.0,56.0,30.14,North,0,0.0,4.0,99,0.00,,,0.03,,2013-01-12 16:03:00,
2013-01-12 11:12:00,56.0,56.0,30.14,North,0,0.0,4.0,99,0.00,,,0.03,,2013-01-12 16:12:00,
2013-01-12 11:23:00,56.0,56.0,30.13,North,0,0.0,0.0,99,0.00,,,0.00,,2013-01-12 16:23:00,
2013-01-12 11:33:00,56.0,56.0,30.13,North,0,0.0,0.0,99,0.00,,,0.00,,2013-01-12 16:33:00,
2013-01-12 11:43:00,57.0,57.0,30.12,North,0,0.0,0.0,99,0.00,,,0.00,,2013-01-12 16:43:00,
2013-01-12 11:53:00,57.0,57.0,30.12,North,0,0.0,0.0,99,0.00,,,0.00,,2013-01-12 16:53:00,
2013-01-12 12:02:00,57.0,57.0,30.11,South,174,1.0,4.0,99,0.01,,,0.01,,2013-01-12 17:02:00,
2013-01-12 12:12:00,57.0,57.0,30.11,South,174,1.0,4.0,99,0.01,,,0.01,,2013-01-12 17:12:00,
2013-01-12 12:23:00,58.0,58.0,30.10,North,0,0.0,0.0,99,0.01,,,0.01,,2013-01-12 17:23:00,
2013-01-12 12:33:00,59.0,59.0,30.10,North,0,0.0,3.0,99,0.01,,,0.01,,2013-01-12 17:33:00,
2013-01-12 12:43:00,59.0,59.0,30.10,North,0,0.0,3.0,99,0.01,,,0.01,,2013-01-12 17:43:00,
2013-01-12 12:53:00,59.0,59.0,30.10,North,0,0.0,4.0,99,0.01,,,0.01,,2013-01-12 17:53:00,
2013-01-12 13:03:00,59.0,59.0,30.10,North,0,0.0,4.0,99,0.01,,,0.01,,2013-01-12 18:03:00,
2013-01-12 13:12:00,59.0,59.0,30.10,North,0,0.0,4.0,99,0.01,,,0.01,,2013-01-12 18:12:00,
2013-01-12 13:23:00,61.0,59.0,30.09,South,169,1.0,3.0,94,0.00,,,0.01,,2013-01-12 18:23:00,
2013-01-12 13:33:00,62.0,60.0,30.09,North,0,0.0,2.0,92,0.00,,,0.01,,2013-01-12 18:33:00,
2013-01-12 13:43:00,62.0,60.0,30.09,North,0,0.0,2.0,92,0.00,,,0.01,,2013-01-12 18:43:00,
2013-01-12 13:53:00,63.0,60.0,30.08,North,0,0.0,4.0,89,0.00,,,0.01,,2013-01-12 18:53:00,
2013-01-12 14:03:00,64.0,60.0,30.08,SSE,150,2.0,5.0,88,0.00,,,0.01,,2013-01-12 19:03:00,
2013-01-12 14:12:00,64.0,60.0,30.08,SSE,150,2.0,5.0,88,0.00,,,0.01,,2013-01-12 19:12:00,
2013-01-12 14:23:00,64.0,60.0,30.08,SSE,149,2.0,4.0,87,0.00,,,0.01,,2013-01-12 19:23:00,
2013-01-12 14:33:00,65.0,61.0,30.08,North,0,0.0,3.0,87,0.00,,,0.01,,2013-01-12 19:33:00,
2013-01-12 14:43:00,65.0,61.0,30.08,North,0,0.0,3.0,87,0.00,,,0.01,,2013-01-12 19:43:00,
2013-01-12 14:53:00,65.0,60.0,30.08,North,0,0.0,3.0,85,0.00,,,0.01,,2013-01-12 19:53:00,
2013-01-12 15:03:00,66.0,61.0,30.08,North,0,0.0,3.0,84,0.00,,,0.01,,2013-01-12 20:03:00,
2013-01-12 15:12:00,66.0,61.0,30.09,North,0,0.0,1.0,84,0.00,,,0.01,,2013-01-12 20:12:00,
2013-01-12 15:22:00,66.0,61.0,30.09,North,0,0.0,1.0,84,0.00,,,0.01,,2013-01-12 20:22:00,
2013-01-12 15:33:00,66.0,61.0,30.09,North,0,0.0,1.0,84,0.00,,,0.01,,2013-01-12 20:33:00,
2013-01-12 15:42:00,66.0,61.0,30.09,North,0,0.0,1.0,84,0.00,,,0.01,,2013-01-12 20:42:00,
2013-01-12 15:53:00,66.0,61.0,30.09,North,0,0.0,1.0,84,0.00,,,0.01,,2013-01-12 20:53:00,
2013-01-12 16:03:00,66.0,61.0,30.09,North,0,0.0,0.0,85,0.00,,,0.01,,2013-01-12 21:03:00,
2013-01-12 16:12:00,66.0,62.0,30.09,North,0,0.0,0.0,87,0.00,,,0.01,,2013-01-12 21:12:00,
2013-01-12 16:22:00,66.0,62.0,30.09,North,0,0.0,0.0,87,0.00,,,0.01,,2013-01-12 21:22:00,
2013-01-12 16:33:00,66.0,62.0,30.09,North,0,0.0,0.0,87,0.00,,,0.01,,2013-01-12 21:33:00,
2013-01-12 16:43:00,66.0,62.0,30.09,North,0,0.0,0.0,87,0.00,,,0.01,,2013-01-12 21:43:00,
2013-01-12 16:53:00,66.0,62.0,30.09,North,0,0.0,0.0,88,0.00,,,0.01,,2013-01-12 21:53:00,
2013-01-12 17:03:00,65.0,62.0,30.08,North,0,0.0,0.0,89,0.00,,,0.01,,2013-01-12 22:03:00,
2013-01-12 17:12:00,65.0,62.0,30.08,North,0,0.0,0.0,89,0.00,,,0.01,,2013-01-12 22:12:00,
2013-01-12 17:23:00,64.0,61.0,30.08,North,0,0.0,0.0,91,0.00,,,0.01,,2013-01-12 22:23:00,
2013-01-12 17:33:00,64.0,62.0,30.08,North,0,0.0,0.0,92,0.00,,,0.01,,2013-01-12 22:33:00,
2013-01-12 17:43:00,64.0,62.0,30.08,North,0,0.0,0.0,92,0.00,,,0.01,,2013-01-12 22:43:00,
2013-01-12 17:53:00,64.0,62.0,30.08,North,0,0.0,0.0,92,0.00,,,0.01,,2013-01-12 22:53:00,
2013-01-12 18:03:00,63.0,61.0,30.08,North,0,0.0,0.0,93,0.00,,,0.01,,2013-01-12 23:03:00,
2013-01-12 18:12:00,62.0,60.0,30.08,North,0,0.0,0.0,93,0.00,,,0.01,,2013-01-12 23:12:00,
2013-01-12 18:23:00,62.0,60.0,30.08,North,0,0.0,0.0,93,0.00,,,0.01,,2013-01-12 23:23:00,
2013-01-12 18:33:00,62.0,60.0,30.08,North,0,0.0,0.0,93,0.00,,,0.01,,2013-01-12 23:33:00,
2013-01-12 18:43:00,62.0,60.0,30.08,North,0,0.0,0.0,93,0.00,,,0.01,,2013-01-12 23:43:00,
2013-01-12 18:53:00,61.0,60.0,30.08,North,0,0.0,0.0,95,0.00,,,0.01,,2013-01-12 23:53:00,
2013-01-12 19:03:00,61.0,60.0,30.08,North,0,0.0,0.0,95,0.00,,,0.01,,2013-01-13 00:03:00,
2013-01-12 19:12:00,61.0,60.0,30.08,North,0,0.0,0.0,95,0.00,,,0.01,,2013-01-13 00:12:00,
2013-01-12 19:23:00,60.0,59.0,30.08,North,0,0.0,0.0,95,0.00,,,0.01,,2013-01-13 00:23:00,
2013-01-12 19:33:00,60.0,59.0,30.08,North,0,0.0,0.0,95,0.00,,,0.01,,2013-01-13 00:33:00,
2013-01-12 19:43:00,60.0,59.0,30.08,North,0,0.0,0.0,95,0.00,,,0.01,,2013-01-13 00:43:00,
2013-01-12 19:52:00,58.0,57.0,30.07,North,0,0.0,0.0,95,0.00,,,0.01,,2013-01-13 00:52:00,
2013-01-12 20:03:00,57.0,56.0,30.07,North,0,0.0,0.0,96,0.00,,,0.01,,2013-01-13 01:03:00,
2013-01-12 20:12:00,57.0,56.0,30.07,North,0,0.0,0.0,96,0.00,,,0.01,,2013-01-13 01:12:00,
2013-01-12 20:23:00,57.0,56.0,30.07,North,0,0.0,0.0,96,0.00,,,0.01,,2013-01-13 01:23:00,
2013-01-12 20:33:00,57.0,56.0,30.07,North,0,0.0,0.0,96,0.00,,,0.01,,2013-01-13 01:33:00,
2013-01-12 20:43:00,57.0,56.0,30.07,North,0,0.0,0.0,96,0.00,,,0.01,,2013-01-13 01:43:00,
2013-01-12 20:53:00,56.0,55.0,30.07,North,0,0.0,0.0,96,0.00,,,0.01,,2013-01-13 01:53:00,
2013-01-12 21:02:00,56.0,55.0,30.08,North,0,0.0,0.0,96,0.00,,,0.01,,2013-01-13 02:02:00,
2013-01-12 21:13:00,56.0,55.0,30.08,North,0,0.0,0.0,96,0.00,,,0.01,,2013-01-13 02:13:00,
2013-01-12 21:22:00,55.0,54.0,30.08,North,0,0.0,0.0,97,0.00,,,0.01,,2013-01-13 02:22:00,
2013-01-12 21:33:00,55.0,54.0,30.08,North,0,0.0,0.0,97,0.00,,,0.01,,2013-01-13 02:33:00,
2013-01-12 21:43:00,55.0,54.0,30.08,North,0,0.0,0.0,97,0.00,,,0.01,,2013-01-13 02:43:00,
2013-01-12 21:53:00,55.0,54.0,30.08,North,0,0.0,0.0,97,0.00,,,0.01,,2013-01-13 02:53:00,
2013-01-12 22:02:00,54.0,53.0,30.08,North,0,0.0,0.0,97,0.00,,,0.01,,2013-01-13 03:02:00,
2013-01-12 22:12:00,54.0,53.0,30.08,North,0,0.0,0.0,97,0.00,,,0.01,,2013-01-13 03:12:00,
2013-01-12 22:22:00,54.0,53.0,30.08,North,0,0.0,0.0,97,0.00,,,0.01,,2013-01-13 03:22:00,
2013-01-12 22:33:00,54.0,53.0,30.08,North,0,0.0,0.0,97,0.00,,,0.01,,2013-01-13 03:33:00,
2013-01-12 22:40:00,54.0,53.0,30.08,North,0,0.0,0.0,97,0.00,,,0.01,,2013-01-13 03:40:00,
2013-01-12 22:43:00,54.0,53.0,30.08,North,0,0.0,0.0,97,0.00,,,0.01,,2013-01-13 03:43:00,
2013-01-12 22:53:00,54.0,53.0,30.08,North,0,0.0,0.0,97,0.00,,,0.01,,2013-01-13 03:53:00,
2013-01-12 23:03:00,54.0,53.0,30.08,North,0,0.0,0.0,97,0.00,,,0.01,,2013-01-13 04:03:00,
2013-01-12 23:12:00,54.0,53.0,30.08,North,0,0.0,0.0,97,0.00,,,0.01,,2013-01-13 04:12:00,
2013-01-12 23:22:00,54.0,53.0,30.08,North,0,0.0,0.0,97,0.00,,,0.01,,2013-01-13 04:22:00,
2013-01-12 23:33:00,54.0,53.0,30.08,North,0,0.0,0.0,97,0.00,,,0.01,,2013-01-13 04:33:00,
2013-01-12 23:53:00,54.0,53.0,30.08,North,0,0.0,0.0,98,0.00,,,0.01,,2013-01-13 04:53:00,